"Pseudo-MPEC" for C3LRJ82

Created 2020 Oct 19 5:07:19 UT using Find_Orb

Click here for an explanation of pseudo-MPECs

 
 Astrometry: 
     C3LRJ82  C2020 10 15.884hq6'y0Ly;g-iktKN[J++MT\JC?XAstrometry5WGW)]^(Gd\F52
     C3LRJ82  C2020 10 15bQi+w=W%x')f-7W4A6IS]6trA]T]hCie:FE9'KvmX4o6HjLC=,Y7F52
     C3LRJ82  C2020 10 15%,Xb`oP^^px^;k?@BfRV5hXH^#ek7JC42)^ABft[[e!-AT=VvP\EF52
     C3LRJ82  C2020 10 17.45757105 37 05.69 -04 16 09.5    ~AHBq 18.95GVNEOCPG96
     C3LRJ82  C2020 10 17.46269305 37 00.94 -04 14 01.8    ~AHBq 18.82GVNEOCPG96
     C3LRJ82  C2020 10 17.46781105 36 56.25 -04 11 55.1    ~AHBq 18.81GVNEOCPG96
     C3LRJ82 KC2020 10 17.52369705 36 04.46 -03 48 37.5    ~AHCq 19.49GVNEOCPI52
     C3LRJ82 KC2020 10 17.52443805 36 03.78 -03 48 18.9    ~AHCq 19.05GVNEOCPI52
     C3LRJ82 KC2020 10 17.52517805 36 03.09 -03 47 59.9    ~AHCq 19.99GVNEOCPI52
     C3LRJ82 KC2020 10 184:0YQg)tUoW9fyredacted;6RMq48KiFCq#t!9click?jS)#*J-X104
     C3LRJ82 KC2020 10 18ZV6sBi/hereuZc.`Rb,P4cJ5#CYV];QDs1c^wRHrH\51Bgs)=aFg104
     C3LRJ82 KC2020 10 18wI00Z7muB7n-lXkid9;gvPxr=KU5gV%gN_XBZTYOa%aRn%lclB9D104
     C3LRJ82 KC2020 10 18.07088105 27 38.60 +00 10 40.8    ~AI2M 19.4 GVNEOCPI93
     C3LRJ82 KC2020 10 18.07344105 27 36.03 +00 11 51.3    ~AI2M 19.1 GVNEOCPI93
     C3LRJ82 KC2020 10 18.07600405 27 33.41 +00 13 01.6    ~AI2M 18.8 GVNEOCPI93
     C3LRJ82 KC2020 10 18:1JpkLV/forQw]7U%K/9TJ;#guIPAkD@+/jU/5'explanationeDL01
     C3LRJ82 KC2020 10 183c'JraO\*,rEc9@2Db#h(cwLr`aTK_ghfkaM@w'J)TJmGDYk`73BL01
     C3LRJ82 KC2020 10 18TdHLJ/PHG5lY30x7:,;aS`@yF12iew78G!rwItp8f)/S:aE.m`IFL01
     C3LRJ82 KC2020 10 18iymU26@/M20(+b,%2DEo-S/nxqa^@+d;R?'B_jIr!RW=^6O\[Dj4L01
     C3LRJ82 KC2020 10 18.^2%KF001b)9*h]S:8_qUw-^ZC)$WkDpIp2YZDuc7Y,tfFgLrBI%L01
     C3LRJ82 KC2020 10 18.40450105 22 04.80 +02 47 09.5    ~AIA7 19.13GVNEOCPI52
     C3LRJ82 KC2020 10 18.40499405 22 04.27 +02 47 23.3    ~AIA7 19.32GVNEOCPI52
     C3LRJ82 KC2020 10 18.40548605 22 03.75 +02 47 37.6    ~AIA7 19.24GVNEOCPI52
     C3LRJ82 KC2020 10 18.40597905 22 03.23 +02 47 51.7    ~AIA7 18.96GVNEOCPI52

Station data:
(104) San Marcello Pistoiese  (N44.063037 E10.804200)  Italy. 0.40-m f/5
   reflector.
(F52) Pan-STARRS 2, Haleakala  (N20.707384 W156.255910)  US/Hawaii. 1.8-m
   Ritchey-Chrétien + CCD.
(G96) Mt. Lemmon Survey  (N32.442754 W110.788720)  US/Arizona.  Observers T.
   A. Pruyne, B. M. Africano, E. J. Christensen, G. A. Farneth, D. C. Fuls,
   A. R. Gibbs, A. D. Grauer, H. Gröller, J. A. Johnson, R. A. Kowalski, S.
   M. Larson, G. J. Leonard, D. Rankin, R. L. Seaman, F. C. Shelly. 1.5-m
   reflector + 10K CCD.
(I52) Steward Observatory, Mt. Lemmon Station  (N32.442547 W110.788920)
   US/Arizona.  Observers T. A. Pruyne, B. M. Africano, E. J. Christensen, G.
   A. Farneth, D. C. Fuls, A. R. Gibbs, A. D. Grauer, H. Gröller, J. A.
   Johnson, R. A. Kowalski, S. M. Larson, G. J. Leonard, D. Rankin, R. L.
   Seaman, F. C. Shelly. 1.0-m reflector + CCD.
(I93) St Pardon de Conques  (N44.558710 W0.203000)  France.  Observer F.
   Losse. 0.40-m f/3.7 reflector + CCD.
(L01) Višnjan Observatory, Tičan  (N45.290900 E13.749300)  Croatia.
   Observers K. Korlević, E. Pettarin. Measurer E. Pettarin. 1.0-m f/2.9
   reflector + CCD.

Orbital elements:  C3LRJ82
   Perihelion 2020 Sep 2.203087 +/- 0.359 TT =  4:52:26 (JD 2459094.703087)
Epoch 2020 Oct 18.0 TT = JDT 2459140.5   Earth MOID: 0.0521   AutoNEOCP
M  28.76965648 +/- 0.45             (J2000 ecliptic)
n   0.62820078 +/- 0.00505          Peri.  305.07074 +/- 0.37
a   1.35021750 +/- 0.00726          Node    30.10739 +/- 0.011
e   0.2987622 +/- 0.00326           Incl.   43.95404 +/- 0.16
P   1.57/573.05d           H 22.8   G  0.15   U  9.2  
q 0.94682344 +/- 0.000683    Q 1.75361155 +/- 0.014
From 24 observations 2020 Oct. 15-18; mean residual 0".30
Residuals in arcseconds: 
201015 F52  .09-  .04+    201017 I52  .08+  .05+    201018 L01  .18-  .25+    
201015 F52  .03-  .06+    201018 104  .16+  .38+    201018 L01  .08+  .09-    
201015 F52  .00   .13-    201018 104  1.1+  .09-    201018 L01  .06-  .02-    
201017 G96  .05+  .07-    201018 104  .04-  .96+    201018 L01  .02-  .03-    
201017 G96  .35-  .34+    201018 I93  .15+  .27-    201018 I52  .17-  .03-    
201017 G96  .15+  .26-    201018 I93  .06+  .05+    201018 I52  .26-  .41-    
201017 I52  .01-  .33-    201018 I93  .70-  .06+    201018 I52  .21-  .26-    
201017 I52  .12+  .35-    201018 L01  .08+  .03+    201018 I52  .15-  .34-    

Ephemerides (geocentric):
Date (UTC) HH   RA              Dec         delta   r     elong  mag " sig PA
---- -- -- --  -------------   -----------  ------ ------ -----  --- ---- ---
2020 10 19 05  05 07 25.236   +09 32 32.80  .07563 1.0443 128.1 19.1 .472 156
2020 10 19 06  05 06 36.699   +09 54 27.83  .07548 1.0445 128.3 19.1 .480 156
2020 10 19 07  05 05 47.850   +10 16 27.67  .07533 1.0447 128.6 19.1 .488 155
2020 10 19 08  05 04 58.687   +10 38 32.20  .07518 1.0448 128.9 19.1 .496 155
2020 10 19 09  05 04 09.208   +11 00 41.27  .07504 1.0450 129.1 19.1 .505 155
2020 10 19 10  05 03 19.411   +11 22 54.75  .07491 1.0451 129.4 19.1 .514 154
2020 10 19 11  05 02 29.296   +11 45 12.49  .07478 1.0453 129.7 19.0 .522 154
2020 10 19 12  05 01 38.859   +12 07 34.34  .07465 1.0454 130.0 19.0 .531 153
2020 10 19 13  05 00 48.100   +12 30 00.14  .07452 1.0456 130.2 19.0 .541 153
2020 10 19 14  04 59 57.018   +12 52 29.76  .07440 1.0457 130.5 19.0 .550 153
2020 10 19 15  04 59 05.610   +13 15 03.02  .07429 1.0459 130.7 19.0 .559 152
2020 10 19 16  04 58 13.875   +13 37 39.76  .07418 1.0461 131.0 19.0 .569 152
2020 10 19 17  04 57 21.811   +14 00 19.83  .07407 1.0462 131.3 19.0 .578 152
2020 10 19 18  04 56 29.418   +14 23 03.05  .07397 1.0464 131.5 19.0 .588 151
2020 10 19 19  04 55 36.693   +14 45 49.25  .07387 1.0465 131.8 19.0 .598 151
2020 10 19 20  04 54 43.635   +15 08 38.26  .07378 1.0467 132.0 19.0 .608 151
2020 10 19 21  04 53 50.243   +15 31 29.91  .07369 1.0468 132.3 18.9 .618 150
2020 10 19 22  04 52 56.515   +15 54 24.01  .07360 1.0470 132.6 18.9 .629 150
2020 10 19 23  04 52 02.450   +16 17 20.38  .07352 1.0471 132.8 18.9 .639 150
2020 10 20 00  04 51 08.047   +16 40 18.84  .07344 1.0473 133.1 18.9 .649 149
2020 10 20 01  04 50 13.304   +17 03 19.21  .07337 1.0475 133.3 18.9 .660 149
2020 10 20 02  04 49 18.219   +17 26 21.28  .07330 1.0476 133.6 18.9 .671 149
2020 10 20 03  04 48 22.793   +17 49 24.88  .07324 1.0478 133.8 18.9 .682 148
2020 10 20 04  04 47 27.023   +18 12 29.81  .07318 1.0479 134.0 18.9 .692 148
2020 10 20 05  04 46 30.908   +18 35 35.87  .07313 1.0481 134.3 18.9 .703 148
2020 10 20 06  04 45 34.447   +18 58 42.87  .07308 1.0482 134.5 18.9 .715 147
2020 10 20 07  04 44 37.639   +19 21 50.60  .07303 1.0484 134.8 18.9 .726 147
2020 10 20 08  04 43 40.484   +19 44 58.88  .07299 1.0486 135.0 18.9 .737 147
2020 10 20 09  04 42 42.978   +20 08 07.49  .07295 1.0487 135.2 18.8 .748 146
2020 10 20 10  04 41 45.123   +20 31 16.24  .07292 1.0489 135.4 18.8 .760 146
2020 10 20 11  04 40 46.917   +20 54 24.92  .07289 1.0490 135.7 18.8 .771 146
2020 10 20 12  04 39 48.358   +21 17 33.32  .07287 1.0492 135.9 18.8 .782 145
2020 10 20 13  04 38 49.447   +21 40 41.25  .07285 1.0494 136.1 18.8 .794 145
2020 10 20 14  04 37 50.181   +22 03 48.49  .07283 1.0495 136.3 18.8 .806 145
2020 10 20 15  04 36 50.561   +22 26 54.84  .07282 1.0497 136.5 18.8 .817 144
2020 10 20 16  04 35 50.586   +22 50 00.08  .07282 1.0498 136.8 18.8 .829 144
2020 10 20 17  04 34 50.255   +23 13 04.02  .07282 1.0500 137.0 18.8 .840 144
2020 10 20 18  04 33 49.566   +23 36 06.45  .07282 1.0501 137.2 18.8 .852 144
2020 10 20 19  04 32 48.521   +23 59 07.15  .07283 1.0503 137.4 18.8 .864 143
2020 10 20 20  04 31 47.117   +24 22 05.93  .07284 1.0505 137.6 18.8 .876 143
2020 10 20 21  04 30 45.355   +24 45 02.56  .07286 1.0506 137.8 18.8 .887 143
2020 10 20 22  04 29 43.234   +25 07 56.86  .07288 1.0508 138.0 18.8 .899 142
2020 10 20 23  04 28 40.754   +25 30 48.60  .07290 1.0509 138.1 18.8 .911 142
2020 10 21 00  04 27 37.915   +25 53 37.60  .07293 1.0511 138.3 18.8 .922 142
2020 10 21 01  04 26 34.715   +26 16 23.64  .07297 1.0513 138.5 18.8 .934 141
2020 10 21 02  04 25 31.155   +26 39 06.51  .07301 1.0514 138.7 18.8 .946 141
2020 10 21 03  04 24 27.235   +27 01 46.03  .07305 1.0516 138.8 18.8 .957 141
2020 10 21 04  04 23 22.955   +27 24 21.99  .07310 1.0517 139.0 18.8 .969 141